Date String (YYYY-MM-DD hh:mm:ss) UTC,Instrument flags,absolute air pressure of the measurement (hPa),sample flow rate (lpm),inlet stack bypass flow (lpm),air temperature of the measurement (°C),ambient temperature measured by the external sensor (°C),aerosol sample conditioner tube jacket temperature (°C),OPC LED temperature (°C),internal box temperature (°C),relative humidity of the measurement (%),span deviation,mass concentration of particles derived from Lorenz-Mie calculation of OPC scattering (μg/m³),mass concentration of particles derived from Lorenz-Mie calculation of OPC scattering (μg/m³),mass concentration of particles derived from Lorenz-Mie calculation of OPC scattering (μg/m³)
DateTimeUTC,F1_M11,P_M11,Q1_M11,Q2_M11,T1_M11,T2_M11,T3_M11,T4_M11,T5_M11,U1_M11,ZSPAN_M11,X2_M11,X0_M11,X1_M11
2023-12-07 16:00:00,SystemResetWarning,0819.8,5.00,000.00,023.9,023.1,000.0,032.1,025.2,11.4,0000.0,0000.84,0002.22,0000.62
2023-12-07 16:01:00,SystemResetWarning,0820.0,5.01,000.00,023.9,023.1,000.0,032.1,025.2,11.3,0000.0,0000.84,0001.95,0000.62
2023-12-07 16:02:00,SystemResetWarning,0820.1,5.00,000.00,023.9,023.1,000.0,032.1,025.3,11.2,0000.0,0000.83,0001.92,0000.63
2023-12-07 16:03:00,SystemResetWarning,0819.9,5.01,000.00,023.9,023.1,000.0,032.2,025.3,11.1,0000.0,0000.84,0002.10,0000.63
2023-12-07 16:04:00,SystemResetWarning,0819.9,5.00,000.00,024.0,023.2,000.0,032.2,025.4,11.1,0000.0,0000.87,0002.24,0000.64
2023-12-07 16:05:00,SystemResetWarning,0819.9,4.99,000.00,024.0,023.2,000.0,032.2,025.4,11.1,0000.0,0000.91,0002.37,0000.65
2023-12-07 16:06:00,SystemResetWarning,0819.8,4.99,000.00,024.0,023.2,000.0,032.2,025.4,11.3,0000.0,0000.94,0002.45,0000.66
2023-12-07 16:07:00,SystemResetWarning,0819.9,5.01,000.00,024.0,023.2,000.0,032.2,025.4,11.3,0000.0,0000.93,0002.11,0000.66
2023-12-07 16:08:00,SystemResetWarning,0820.0,5.01,000.00,024.0,023.2,000.0,032.2,025.4,11.1,0000.0,0000.91,0001.77,0000.67
2023-12-07 16:09:00,SystemResetWarning,0820.0,5.01,000.00,024.0,023.2,000.0,032.2,025.4,11.1,0000.0,0000.92,0001.85,0000.67
2023-12-07 16:10:00,SystemResetWarning,0819.8,5.01,000.00,024.0,023.3,000.0,032.2,025.4,11.2,0000.0,0000.94,0001.89,0000.68
2023-12-07 16:11:00,SystemResetWarning,0819.9,5.00,000.00,024.0,023.3,000.0,032.2,025.5,11.1,0000.0,0000.96,0002.02,0000.68
2023-12-07 16:12:00,SystemResetWarning,0819.9,4.99,000.00,024.1,023.3,000.0,032.2,025.5,11.1,0000.0,0000.98,0003.60,0000.68
2023-12-07 16:13:00,SystemResetWarning,0820.4,5.00,000.00,024.1,023.3,000.0,032.3,025.5,11.2,0000.0,0000.96,0003.69,0000.66
2023-12-07 16:14:00,SystemResetWarning,0820.1,4.99,000.00,024.1,023.3,000.0,032.3,025.5,11.4,0000.0,0000.95,0003.46,0000.66
2023-12-07 16:15:00,SystemResetWarning,0819.5,5.00,000.00,024.1,023.3,000.0,032.3,025.5,11.1,0000.0,0000.93,0003.35,0000.66
2023-12-07 16:16:00,SystemResetWarning,0819.7,5.01,000.00,024.1,023.3,000.0,032.3,025.4,11.3,0000.0,0000.94,0003.38,0000.67
2023-12-07 16:17:00,SystemResetWarning,0819.8,5.01,000.00,024.1,023.3,000.0,032.3,025.4,11.3,0000.0,0000.92,0003.50,0000.67
2023-12-07 16:18:00,SystemResetWarning,0819.9,5.00,000.00,024.1,023.3,000.0,032.3,025.4,11.4,0000.0,0000.96,0003.61,0000.67
2023-12-07 16:19:00,SystemResetWarning,0820.1,4.99,000.00,024.1,023.3,000.0,032.3,025.4,11.4,0000.0,0000.98,0003.70,0000.66
2023-12-07 16:20:00,SystemResetWarning,0820.2,4.99,000.00,024.1,023.3,000.0,032.3,025.5,11.3,0000.0,0000.94,0003.58,0000.64
2023-12-07 16:21:00,SystemResetWarning,0819.8,5.00,000.00,024.1,023.3,000.0,032.3,025.5,11.1,0000.0,0000.95,0004.11,0000.63
2023-12-07 16:22:00,SystemResetWarning,0819.7,5.01,000.00,024.1,023.2,000.0,032.3,025.5,11.2,0000.0,0000.94,0004.24,0000.63
2023-12-07 16:23:00,SystemResetWarning,0819.8,5.01,000.00,024.1,023.2,000.0,032.3,025.4,11.3,0000.0,0000.94,0002.80,0000.63
2023-12-07 16:24:00,SystemResetWarning,0819.9,5.00,000.00,024.1,023.2,000.0,032.4,025.4,11.5,0000.0,0000.97,0002.55,0000.64
2023-12-07 16:25:00,SystemResetWarning,0819.9,4.99,000.00,024.1,023.2,000.0,032.4,025.4,11.5,0000.0,0001.02,0002.67,0000.65
2023-12-07 16:26:00,SystemResetWarning,0819.6,5.01,000.00,024.1,023.2,000.0,032.4,025.4,11.0,0000.0,0001.04,0003.14,0000.66
2023-12-07 16:27:00,SystemResetWarning,0819.5,5.02,000.00,024.1,023.2,000.0,032.4,025.4,10.6,0000.0,0001.05,0003.55,0000.67
2023-12-07 16:28:00,SystemResetWarning,0819.5,5.00,000.00,024.1,023.2,000.0,032.4,025.4,10.8,0000.0,0001.10,0003.64,0000.69
2023-12-07 16:29:00,SystemResetWarning,0820.1,4.99,000.00,024.1,023.2,000.0,032.4,025.3,11.1,0000.0,0001.10,0003.67,0000.71
2023-12-07 16:30:00,SystemResetWarning,0820.1,4.99,000.00,024.1,023.2,000.0,032.4,025.4,11.2,0000.0,0001.08,0003.55,0000.72
2023-12-07 16:31:00,SystemResetWarning,0820.0,5.00,000.00,024.1,023.1,000.0,032.4,025.4,11.2,0000.0,0001.14,0003.75,0000.74
2023-12-07 16:32:00,SystemResetWarning,0819.5,4.99,000.00,024.1,023.1,000.0,032.4,025.4,11.2,0000.0,0001.17,0003.62,0000.75
2023-12-07 16:33:00,SystemResetWarning,0819.8,5.02,000.00,024.1,023.2,000.0,032.4,025.4,11.0,0000.0,0001.15,0003.14,0000.76
2023-12-07 16:34:00,SystemResetWarning,0819.8,4.99,000.00,024.0,023.1,000.0,032.4,025.3,10.9,0000.0,0001.15,0003.14,0000.77
2023-12-07 16:35:00,SystemResetWarning,0819.7,4.99,000.00,024.0,023.1,000.0,032.4,025.3,11.0,0000.0,0001.16,0003.25,0000.77
2023-12-07 16:36:00,SystemResetWarning,0819.8,5.02,000.00,024.0,023.1,000.0,032.4,025.3,11.1,0000.0,0001.19,0003.42,0000.77
2023-12-07 16:37:00,SystemResetWarning,0819.8,4.98,000.00,024.0,023.1,000.0,032.4,025.2,11.3,0000.0,0001.23,0007.42,0000.76
2023-12-07 16:38:00,SystemResetWarning,0820.1,5.00,000.00,024.0,023.0,000.0,032.4,025.2,10.8,0000.0,0001.32,0010.04,0000.76
2023-12-07 16:39:00,SystemResetWarning,0819.9,5.00,000.00,024.0,023.0,000.0,032.3,025.2,10.8,0000.0,0001.37,0013.31,0000.75
2023-12-07 16:40:00,SystemResetWarning,0820.0,5.01,000.00,024.0,023.0,000.0,032.3,025.2,11.0,0000.0,0001.39,0013.47,0000.74
2023-12-07 16:41:00,SystemResetWarning,0820.2,5.01,000.00,024.0,023.0,000.0,032.3,025.2,11.0,0000.0,0001.39,0013.75,0000.73
2023-12-07 16:42:00,SystemResetWarning,0820.6,4.99,000.00,024.0,023.0,000.0,032.3,025.3,11.2,0000.0,0001.40,0015.08,0000.73
2023-12-07 16:43:00,SystemResetWarning,0820.3,4.99,000.00,024.0,023.0,000.0,032.3,025.3,11.1,0000.0,0001.96,0030.58,0000.75
2023-12-07 16:44:00,SystemResetWarning,0820.1,5.00,000.00,024.0,023.0,000.0,032.3,025.3,11.1,0000.0,0002.09,0031.26,0000.76
2023-12-07 16:45:00,SystemResetWarning,0819.8,5.01,000.00,024.0,023.0,000.0,032.3,025.3,11.3,0000.0,0002.12,0031.44,0000.75
2023-12-07 16:46:00,SystemResetWarning,0819.9,5.01,000.00,024.0,023.0,000.0,032.3,025.2,11.1,0000.0,0002.11,0031.76,0000.75
2023-12-07 16:47:00,SystemResetWarning,0819.5,4.99,000.00,024.0,023.0,000.0,032.3,025.2,11.3,0000.0,0002.11,0031.74,0000.74
2023-12-07 16:48:00,SystemResetWarning,0819.5,4.98,000.00,023.9,023.0,000.0,032.3,025.2,11.5,0000.0,0002.11,0030.44,0000.74
2023-12-07 16:49:00,SystemResetWarning,0819.3,5.00,000.00,023.9,023.0,000.0,032.3,025.2,11.5,0000.0,0002.02,0027.41,0000.73
2023-12-07 16:50:00,SystemResetWarning,0819.7,5.02,000.00,023.9,022.9,000.0,032.3,025.2,11.5,0000.0,0001.92,0023.26,0000.73
2023-12-07 16:51:00,SystemResetWarning,0819.7,5.01,000.00,023.9,022.9,000.0,032.3,025.1,11.5,0000.0,0001.86,0022.98,0000.71
2023-12-07 16:52:00,SystemResetWarning,0819.7,4.98,000.00,023.9,022.9,000.0,032.3,025.1,11.7,0000.0,0001.83,0022.73,0000.71
2023-12-07 16:53:00,SystemResetWarning,0819.9,5.00,000.00,023.9,022.9,000.0,032.3,025.1,11.5,0000.0,0001.85,0022.66,0000.71
2023-12-07 16:54:00,SystemResetWarning,0819.7,5.01,000.00,023.9,022.9,000.0,032.3,025.1,11.6,0000.0,0001.49,0010.50,0000.69
2023-12-07 16:55:00,SystemResetWarning,0819.6,5.01,000.00,023.9,022.9,000.0,032.3,025.1,11.6,0000.0,0001.14,0003.30,0000.67
2023-12-07 16:56:00,SystemResetWarning,0819.9,5.00,000.00,023.9,022.9,000.0,032.3,025.1,11.2,0000.0,0001.10,0002.94,0000.68
2023-12-07 16:57:00,SystemResetWarning,0820.1,4.99,000.00,023.9,022.9,000.0,032.3,025.1,11.1,0000.0,0001.09,0002.61,0000.68
2023-12-07 16:58:00,SystemResetWarning,0820.2,4.99,000.00,023.9,022.9,000.0,032.2,025.1,11.1,0000.0,0001.12,0003.83,0000.69
2023-12-07 16:59:00,SystemResetWarning,0819.8,5.00,000.00,023.9,022.9,000.0,032.2,025.2,11.5,0000.0,0001.16,0004.06,0000.70
